Simultaneous Nadir Overpasses (SNOs) Predictions

Prediction of SNOs between GOES-17 and NPP Satellite Orbit:

Table of predicted SNOs for the next 14.0 days since TLE Epoch: 2/3/2024
Index Date Time (GOES-17) GOES-17 Lat,Lon NPP Lat,Lon Distance(km) Time Diff (sec)
1 02/03/2024 20:11:42 -0.02,-104.68 0.70,-101.35 379.17 80
2 02/05/2024 08:33:30 0.03,-104.70 0.44,-106.62 218.72 80
3 02/06/2024 08:12:04 0.03,-104.70 -0.54,-102.08 297.60 80
4 02/07/2024 20:34:01 -0.03,-104.67 -0.63,-107.39 309.25 80
5 02/08/2024 20:17:55 -0.03,-104.67 0.35,-102.85 207.20 80
6 02/10/2024 08:39:43 0.04,-104.70 0.78,-108.13 390.55 80
7 02/11/2024 08:18:18 0.03,-104.70 -0.20,-103.59 125.88 80
8 02/12/2024 20:42:53 -0.04,-104.67 -1.01,-108.88 480.70 80
9 02/13/2024 20:21:29 -0.03,-104.67 0.03,-104.36 36.04 80
10 02/16/2024 08:27:12 0.04,-104.70 0.11,-105.10 44.51 80
